EDT,Max TemperatureF,Mean TemperatureF,Min TemperatureF,Max Dew PointF,MeanDew PointF,Min DewpointF,Max Humidity, Mean Humidity, Min Humidity, Max Sea Level PressureIn, Mean Sea Level PressureIn, Min Sea Level PressureIn, Max VisibilityMiles, Mean VisibilityMiles, Min VisibilityMiles, Max Wind SpeedMPH, Mean Wind SpeedMPH, Max Gust SpeedMPH,PrecipitationIn, CloudCover, Events, WindDirDegrees
2012-8-1,82,70,57,64,57,45,100,67,26,29.93,29.90,29.86,10,10,7,9,2,,0.00,1,,341
2012-8-2,87,71,55,63,54,45,100,63,23,29.92,29.88,29.84,10,10,10,10,2,16,0.00,0,,239
2012-8-3,87,74,60,70,61,52,100,65,29,29.95,29.92,29.87,10,9,1,10,3,16,0.00,0,,120
2012-8-4,87,76,64,72,67,57,100,74,46,29.98,29.92,29.85,10,9,1,21,5,29,0.00,3,Rain,175
2012-8-5,84,73,60,73,60,45,100,72,30,30.11,29.95,29.85,10,9,2,20,8,25,0.00,3,Rain,264
2012-8-6,75,62,48,61,51,43,100,66,35,30.17,30.10,30.02,10,10,7,10,2,,0.00,0,,155
2012-8-7,84,68,51,63,53,45,100,61,25,30.02,29.96,29.90,10,9,0,14,4,21,0.00,0,Fog,236
2012-8-8,82,71,60,64,60,55,100,70,42,29.97,29.94,29.91,10,10,10,9,2,10,0.00,2,,65
2012-8-9,68,64,60,64,62,57,100,96,73,29.96,29.89,29.78,10,8,2,13,4,16,0.00,7,Rain,39
2012-8-10,66,62,57,63,59,54,100,95,73,29.78,29.69,29.65,10,8,2,18,6,23,0.00,7,Rain,242
2012-8-11,66,60,55,61,58,55,100,93,73,29.93,29.81,29.71,10,9,3,17,10,22,0.00,7,Rain,292
2012-8-12,77,66,55,61,55,46,100,73,34,30.00,29.97,29.93,10,10,7,10,3,16,0.00,3,,272
2012-8-13,73,66,59,63,58,52,100,79,50,30.01,29.97,29.93,10,10,10,8,1,,0.00,3,Rain,110
2012-8-14,73,65,57,64,60,55,100,90,53,29.93,29.90,29.87,10,7,0,7,2,,0.00,6,Fog-Rain,8
2012-8-15,75,63,51,66,59,52,100,92,50,29.97,29.94,29.91,10,6,0,14,2,39,0.00,5,Fog-Rain,229
2012-8-16,78,66,55,64,58,55,100,77,44,29.97,29.88,29.77,10,8,0,18,5,24,0.00,2,Fog-Rain,220
2012-8-17,73,63,53,64,53,43,100,72,33,29.97,29.89,29.83,10,10,7,13,6,17,0.00,2,Rain,294
2012-8-18,69,58,46,52,43,30,100,65,23,30.03,29.98,29.94,10,10,10,7,2,,0.00,0,,107
2012-8-19,73,60,46,54,47,39,100,69,29,29.96,29.92,29.88,10,10,7,8,1,,0.00,1,,94
2012-8-20,69,58,48,61,54,48,100,84,46,29.98,29.94,29.90,10,10,1,9,2,18,0.00,2,Rain,67
2012-8-21,71,60,48,59,54,48,100,82,53,30.09,30.04,29.98,10,8,0,10,2,,0.00,2,Fog,133
2012-8-22,77,62,48,63,52,45,100,74,32,30.15,30.10,30.07,10,8,0,12,2,,0.00,0,Fog,177
2012-8-23,80,65,50,63,54,43,100,71,28,30.15,30.11,30.08,10,10,7,12,1,,0.00,0,,157
2012-8-24,82,68,53,66,57,54,100,72,37,30.13,30.09,30.05,10,8,0,12,2,,0.00,0,Fog,141
2012-8-25,82,70,57,70,60,54,100,72,37,30.13,30.10,30.07,10,8,0,12,3,16,0.00,0,Fog,120
2012-8-26,80,71,62,66,60,55,100,68,45,30.14,30.08,30.01,10,9,0,12,4,17,0.00,1,Fog,140
2012-8-27,75,68,60,72,67,61,100,96,73,30.02,29.98,29.93,10,6,1,7,2,,0.00,5,Rain,135
2012-8-28,77,66,55,63,55,48,100,73,38,30.09,30.05,30.00,10,10,5,14,3,21,0.00,0,,336
2012-8-29,75,63,51,64,59,52,100,84,53,30.12,30.08,30.03,10,9,4,8,1,,0.00,1,,134
2012-8-30,84,68,53,64,60,54,100,73,37,30.12,30.06,30.01,10,8,0,10,3,,0.00,0,Fog,204
2012-8-31,95,77,59,75,66,59,100,73,36,30.06,30.02,29.98,10,10,4,18,6,24,0.00,0,,244